Temp
9 8 8 7 7 7 7 7 6 6 6 6 6 5 5 5 5 4 5 5 5 5 5 4 4 4 4 3 3 3 3 2 2 2 3 2 2 2 3 3 3 3 4
9 8 8 8 7 7 7 7 7 6 6 6 6 5 5 5 5 4 4 5 5 4 4 4 4 4 4 3 3 3 3 2 2 2 2 2 2 2 2 3 2 3 3
9 8 8 8 7 7 7 7 7 7 6 6 6 5 5 5 5 4 4 4 4 4 4 4 4 4 4 4 3 3 3 2 2 1 2 2 2 1 1 2 1 2 1
9 8 8 8 7 7 7 7 7 6 6 6 6 5 5 5 5 4 4 4 4 4 4 4 4 4 4 4 4 3 2 2 2 2 1 1 2 1 -1 -1 -1 -0 1
9 9 8 8 8 7 7 7 7 6 6 6 6 5 5 5 5 4 4 4 3 4 4 4 4 3 4 4 4 4 3 2 2 1 1 1 1 -1 -1 -1 -1 -1 0
9 9 9 8 8 7 7 7 7 6 6 6 6 6 5 5 5 4 4 4 4 4 4 4 4 3 3 3 4 4 3 3 2 1 1 -1 0 -0 0 -1 -1 -1 -1
10 9 9 8 8 7 7 7 7 6 6 6 6 6 5 5 5 4 5 4 4 4 4 4 4 3 3 3 3 3 3 2 2 1 0 -0 -0 -0 -0 -0 -0 -0 0
10 9 9 8 8 8 7 7 7 6 6 6 6 6 5 5 5 4 4 4 4 4 4 4 4 3 3 3 3 2 2 2 2 2 1 1 0 0 -0 -0 -0 -0 0
10 9 9 8 8 8 7 7 7 6 6 6 6 6 5 5 5 4 4 4 4 4 4 4 4 3 2 3 2 2 2 2 2 1 1 1 1 1 -0 -0 -0 -0 0
9 9 9 9 8 8 8 7 7 6 6 6 6 6 5 5 5 4 4 4 3 3 3 4 4 3 3 2 2 1 1 2 2 2 2 2 1 1 1 0 -1 -1 -1
10 10 9 9 8 8 8 7 7 6 6 6 5 5 5 5 5 5 4 4 3 3 3 3 3 3 2 2 2 2 2 2 2 2 3 3 2 2 1 1 0 -0 -1
10 9 9 9 8 8 8 7 7 6 6 6 5 5 5 5 5 5 4 4 4 3 3 3 3 2 2 2 2 2 2 2 2 2 2 2 2 2 2 2 1 1 1
9 9 9 9 8 8 7 7 6 6 5 5 5 5 5 5 6 5 5 5 4 4 4 3 3 2 2 2 2 3 2 2 2 2 1 2 2 2 2 2 2 1 1
9 9 8 8 8 7 7 7 6 6 5 5 5 5 5 5 5 5 5 4 4 3 3 2 2 2 2 2 2 2 2 2 1 1 1 1 2 2 2 2 2 2 2
9 8 8 8 7 7 7 6 6 6 6 5 5 5 5 5 5 5 4 3 3 2 2 2 2 2 2 2 2 2 2 1 1 1 1 1 1 1 1 1 1 1 1
8 7 7 6 6 6 6 6 6 6 6 6 5 5 5 5 4 3 3 3 2 2 1 1 2 2 2 1 1 1 1 1 1 1 1 1 0 0 0 0 0 0 0
8 7 6 6 6 5 5 4 4 5 5 5 5 5 5 5 4 3 2 2 2 1 1 1 1 1 1 1 1 1 1 1 1 1 0 0 0 0 -0 -0 -0 -0 -0
8 7 6 6 5 5 5 4 4 4 4 4 5 4 4 3 2 2 1 1 1 1 1 1 1 1 1 0 0 0 0 0 0 0 -0 -0 -0 -0 -0 -0 -0 -0 -0
7 6 6 6 6 6 5 4 4 4 4 4 5 4 3 3 2 1 1 1 1 1 1 1 0 0 0 -0 -0 -0 -0 -0 -0 -0 -1 -1 -1 -0 -0 -0 -0 -0 -0
7 7 6 5 5 5 4 4 4 3 3 3 4 4 3 2 1 1 0 0 1 1 1 0 -0 -0 -0 -1 -1 -1 -1 -1 -1 -1 -1 -1 -1 -1 -1 -0 -0 -0 -0
6 6 5 5 4 4 4 4 3 3 3 3 4 4 4 3 2 1 1 0 0 0 -0 -0 -1 -1 -1 -1 -1 -1 -1 -2 -2 -2 -2 -2 -1 -1 -1 -1 -0 -0 -1
6 5 5 4 4 3 3 4 3 3 3 3 4 4 3 2 2 2 1 1 0 0 -0 -1 -1 -2 -2 -2 -2 -2 -2 -3 -3 -2 -3 -2 -2 -1 -1 -1 -1 -1 -1
5 4 4 4 3 3 3 3 3 2 2 3 3 3 3 2 2 2 1 1 0 -1 -1 -2 -2 -2 -2 -2 -2 -3 -3 -3 -3 -3 -3 -3 -2 -2 -1 -1 -1 -1 -1
5 4 3 3 3 3 2 2 2 2 2 2 3 3 2 2 2 1 1 0 -1 -1 -3 -3 -3 -3 -3 -3 -3 -4 -4 -3 -3 -4 -3 -3 -2 -2 -1 -1 -1 -1 -2
4 3 3 3 2 2 2 2 2 2 2 2 2 2 2 2 1 1 -0 -1 -1 -2 -3 -4 -4 -4 -4 -4 -4 -4 -4 -4 -4 -4 -4 -3 -2 -2 -1 -1 -1 -2 -2
4 3 3 2 2 2 2 2 1 1 2 2 2 2 2 2 1 0 -1 -1 -2 -3 -3 -4 -4 -4 -4 -4 -4 -4 -4 -4 -4 -4 -3 -2 -2 -2 -2 -2 -2 -2 -2
Height
844 845 846 847 848 849 849 849 849 848 848 847 846 844 843 842 841 840 838 836 833 830 828 826 823 821 818 815 811 808 804 800 795 789 786 783 780 776 770 765 762 759 753
836 838 840 842 844 844 845 845 846 845 845 844 843 842 841 840 838 837 835 833 830 828 826 824 821 819 816 812 809 806 802 798 794 790 786 784 781 778 772 767 764 761 758
829 831 834 837 839 839 840 841 841 842 841 841 839 839 838 837 834 833 831 830 828 826 824 822 819 817 814 810 807 804 801 797 794 790 786 783 781 778 772 768 766 762 761
824 826 828 830 833 834 836 836 837 837 837 836 836 836 835 833 831 830 829 827 824 823 821 819 817 814 811 809 805 802 800 797 793 790 786 783 781 780 777 774 768 766 763
818 821 822 825 828 830 831 832 833 832 832 832 832 832 831 829 828 827 826 824 821 819 818 816 814 811 809 807 805 801 799 796 793 790 787 784 781 780 779 778 775 769 768
811 814 818 821 823 825 826 827 828 828 828 828 827 828 827 826 825 824 823 821 819 817 815 813 812 809 808 806 804 801 798 796 793 791 788 786 783 781 779 778 777 775 773
804 807 811 814 816 818 821 822 822 823 823 823 823 823 823 822 821 821 820 818 816 814 812 810 809 807 805 804 802 800 798 796 793 791 790 787 784 782 779 777 776 775 773
796 799 803 807 810 812 814 815 817 818 818 819 818 819 819 818 817 817 816 814 813 811 809 808 807 805 804 803 800 798 796 794 792 790 788 786 784 782 780 778 776 774 772
788 791 795 800 803 806 808 809 811 813 813 814 814 814 814 814 813 813 812 811 810 808 806 805 804 803 802 801 798 796 794 793 791 790 789 787 785 783 780 779 777 776 774
781 784 789 794 797 799 801 804 806 807 808 810 810 810 810 809 809 809 808 807 806 805 804 802 802 801 800 799 796 794 793 791 789 789 787 786 785 783 781 780 779 778 776
774 779 783 787 790 793 796 798 800 801 803 804 804 805 805 805 804 804 804 803 802 802 801 800 800 800 798 796 795 793 792 791 789 788 786 784 784 783 782 780 779 777 777
770 774 777 781 784 787 790 792 794 796 797 798 799 798 799 799 799 799 800 800 799 798 798 797 797 797 795 794 793 792 791 790 789 787 786 785 784 783 781 780 779 778 777
765 768 771 775 778 781 783 785 788 789 791 791 793 793 793 794 794 795 796 796 796 794 794 794 794 794 793 792 791 791 790 789 788 787 786 785 784 782 781 780 779 778 777
759 761 764 768 771 775 777 779 780 782 783 785 786 787 788 789 790 790 791 791 792 791 791 791 790 791 791 791 791 790 789 789 788 787 787 785 784 782 781 779 779 777 776
753 755 757 761 764 766 769 771 772 773 775 777 778 781 782 783 785 785 786 787 787 787 788 787 787 788 789 789 789 789 788 788 788 787 786 785 784 783 780 779 777 776 775
745 747 749 753 756 758 762 764 767 768 771 772 773 775 776 778 779 781 782 783 783 784 784 785 785 785 786 787 787 787 787 787 786 786 786 785 783 781 781 779 777 775 774
736 739 741 745 747 751 754 757 759 763 765 767 768 769 770 772 774 776 777 778 779 781 781 782 782 783 784 785 785 786 786 786 786 785 784 784 783 782 781 779 777 776 774
729 731 732 735 738 742 745 748 752 755 758 760 762 763 764 766 768 770 772 774 775 777 778 778 779 780 781 783 784 785 785 785 784 784 783 782 782 780 779 778 777 776 774
721 724 725 727 731 734 737 741 744 747 749 753 756 758 759 761 763 765 767 769 770 772 774 775 776 778 778 780 781 782 783 783 783 782 782 781 780 779 778 778 777 776 774
711 715 719 720 723 726 729 732 735 739 742 744 748 750 753 757 758 759 761 764 766 767 769 772 773 774 775 776 778 780 780 780 780 780 780 780 779 777 777 777 776 774 773
705 705 710 715 714 716 720 723 727 730 734 736 739 743 746 748 750 753 755 758 760 762 765 767 770 771 772 773 774 776 778 778 778 778 777 778 777 776 776 776 775 773 772
701 701 700 703 709 710 711 715 719 722 726 729 732 736 740 742 744 747 750 752 755 757 759 762 765 767 769 770 771 773 775 776 776 776 775 775 775 775 774 773 772 771 770
691 695 698 695 698 704 706 707 710 714 718 722 725 730 732 734 738 741 744 748 750 753 754 756 760 764 766 768 769 769 771 773 774 774 774 774 773 773 772 771 770 770 770
682 688 692 694 691 695 698 700 702 706 710 714 718 722 725 728 732 736 740 743 745 748 751 752 755 760 763 764 766 767 768 770 771 772 772 771 770 770 770 769 768 768 768
678 679 683 688 689 688 691 694 696 699 702 706 710 715 719 723 727 730 734 738 741 743 746 749 751 754 758 760 761 763 765 766 767 768 768 768 768 768 767 767 766 766 766
668 672 675 678 683 683 684 687 690 693 695 698 702 707 711 716 721 724 728 731 735 738 742 744 748 750 753 756 757 759 761 762 763 764 765 766 765 766 766 765 765 765 765
Wind_Speed
24 23 21 20 18 16 16 15 14 12 12 13 13 12 12 13 12 11 10 11 16 16 13 11 13 14 16 13 18 17 18 18 10 18 16 19 19 21 23 22 18 19 19
27 25 24 21 20 19 17 15 13 13 13 13 13 12 12 13 12 10 10 10 15 16 13 13 14 14 13 15 14 13 17 17 15 13 15 16 14 19 20 21 20 16 17
29 27 25 23 22 21 19 15 14 15 14 13 13 12 12 12 12 9 8 11 15 14 12 13 13 12 14 14 10 11 14 17 16 14 15 14 17 18 21 17 19 16 15
30 29 28 26 25 23 19 17 16 15 15 14 12 11 12 11 12 10 9 12 13 12 12 12 12 11 13 12 12 11 10 14 16 17 17 16 14 13 16 18 20 18 16
32 31 31 28 24 22 20 19 17 16 15 14 13 12 11 12 12 9 12 12 14 12 12 10 11 10 9 10 15 12 9 13 13 13 13 16 13 12 11 14 14 17 5
34 34 31 27 25 24 22 21 18 17 16 15 14 13 13 12 12 11 10 12 15 11 14 10 12 8 8 9 12 10 10 13 14 9 12 11 13 14 14 14 13 11 5
37 35 33 30 28 26 24 22 20 19 17 16 15 14 14 13 12 11 10 12 14 12 13 9 11 10 7 10 10 10 8 9 12 9 13 11 12 13 13 13 11 11 9
38 37 34 31 29 27 25 25 22 19 19 17 16 15 15 14 13 11 10 11 11 9 11 9 9 9 7 10 11 8 7 8 9 6 9 11 10 9 9 9 10 12 8
39 38 36 33 31 29 29 27 23 21 20 19 17 16 16 15 13 11 10 11 9 8 5 8 8 7 7 8 10 8 7 9 6 5 5 5 7 7 7 5 11 10 5
37 40 37 34 32 32 31 27 24 23 21 19 19 18 16 16 12 11 10 10 8 7 9 9 6 6 7 8 9 8 10 11 9 6 7 8 5 4 7 10 7 7 7
38 37 35 34 33 32 30 27 25 23 21 20 20 18 16 15 13 11 10 10 8 8 8 8 5 4 8 6 5 8 10 10 10 9 8 3 4 6 6 5 8 7 4
34 34 33 33 33 32 30 28 25 23 23 22 20 19 17 14 14 12 12 10 9 10 9 7 7 8 6 5 5 5 7 8 7 7 7 8 8 8 8 7 5 7 9
31 32 33 32 33 32 31 29 26 25 24 24 22 20 18 12 12 11 11 10 9 7 9 8 6 7 6 3 1 4 5 7 8 8 8 8 8 8 7 6 4 7 9
32 33 33 33 33 33 31 31 30 29 27 26 24 22 19 14 12 11 12 12 9 8 7 9 9 6 7 7 3 2 3 6 7 7 8 8 7 8 7 8 6 6 6
32 33 34 34 33 34 34 34 32 32 30 28 27 22 18 16 13 11 11 10 10 8 7 7 5 3 3 3 2 2 2 5 7 7 7 8 8 9 8 9 8 7 7
31 31 31 31 34 33 32 31 31 31 27 26 23 20 17 14 10 10 10 10 8 6 6 6 5 4 4 3 1 2 3 4 5 6 6 7 8 9 9 9 9 8 9
33 28 29 30 32 29 30 28 23 29 27 24 23 22 21 20 16 15 13 10 7 7 8 7 7 6 5 4 2 1 2 3 3 4 5 6 6 8 9 9 9 9 10
36 32 32 31 31 30 30 28 27 23 22 26 27 23 19 16 15 14 12 10 9 11 10 9 8 7 6 5 3 3 1 1 1 2 3 4 6 7 8 9 9 9 9
34 31 31 32 33 33 31 29 29 27 26 25 25 22 19 16 15 14 13 14 13 14 14 11 10 9 7 6 5 4 3 2 3 1 1 3 5 7 7 8 8 8 8
35 34 30 31 31 31 30 28 27 27 26 26 26 26 22 18 20 20 18 16 15 13 15 14 12 10 9 7 6 5 5 5 2 1 0 1 4 6 7 7 8 8 7
31 31 31 27 30 30 29 29 27 26 26 26 29 27 25 27 26 23 21 20 18 17 17 15 14 12 11 9 8 7 7 6 4 1 0 2 5 6 6 6 5 5 5
31 29 29 28 27 27 28 29 29 28 28 28 29 26 24 26 27 23 22 22 21 18 17 16 15 14 12 10 10 8 7 7 5 3 2 3 5 5 4 4 4 4 3
30 29 27 26 27 26 26 29 29 28 27 29 29 27 26 29 27 24 23 24 22 19 18 18 18 15 12 10 10 9 9 8 6 4 3 5 5 3 3 3 3 4 4
31 28 27 26 25 27 26 26 28 29 28 28 29 29 31 31 29 26 24 23 21 19 18 19 20 17 15 14 13 11 10 8 6 6 5 7 5 3 3 2 0 1 2
29 26 25 25 25 26 25 25 26 27 27 28 28 30 32 31 28 25 25 23 22 21 21 20 19 18 16 15 13 11 10 8 7 7 6 5 4 3 2 2 1 2 2
28 27 26 24 25 25 24 24 25 25 27 28 28 31 32 31 28 26 26 25 25 24 22 21 20 19 18 16 13 11 10 9 7 7 6 5 5 4 3 3 3 3 4
Wind_Direction
216 220 227 232 231 235 244 253 261 269 274 284 292 297 303 309 312 313 305 296 320 319 319 327 328 330 332 337 343 347 349 347 322 330 351 7 20 9 8 15 9 17 23
216 220 227 231 230 236 239 249 255 262 270 278 285 292 295 302 307 310 306 292 310 332 330 327 328 327 325 332 340 345 351 351 344 330 338 353 20 9 0 6 12 13 13
213 216 224 228 228 234 238 243 248 259 268 274 279 283 290 299 306 307 300 292 307 321 329 329 327 329 323 332 328 340 352 351 350 345 335 345 6 8 360 2 16 18 22
217 219 222 224 228 234 238 239 244 254 263 268 275 278 288 294 305 302 300 314 315 311 324 318 327 319 314 319 330 331 337 348 348 348 344 341 349 5 24 5 358 22 15
218 219 223 227 231 233 235 238 245 251 257 264 271 271 281 288 300 291 306 318 324 311 320 313 322 318 320 327 335 342 349 347 341 338 334 346 352 7 9 9 4 353 21
218 221 224 227 229 232 234 239 244 248 254 259 261 266 274 282 291 291 293 304 317 306 313 301 324 319 319 334 341 338 349 348 346 342 348 342 341 344 351 2 4 9 359
219 222 223 225 227 232 235 238 242 245 252 255 259 262 270 278 288 288 293 298 310 304 309 286 319 330 314 343 334 334 335 335 340 353 351 349 337 345 345 356 359 357 357
219 222 223 225 227 229 230 237 242 244 249 255 259 264 269 276 287 283 288 292 309 303 307 280 311 327 337 338 331 333 333 326 350 340 345 354 347 352 348 342 341 349 14
216 220 223 222 226 227 229 235 238 242 247 252 258 264 269 276 283 280 282 289 307 307 316 292 292 303 342 337 331 341 335 331 326 309 340 353 9 19 13 3 16 19 19
216 222 225 225 227 228 231 234 237 241 248 253 257 262 270 277 283 277 270 277 290 291 301 310 269 294 321 328 326 333 338 347 348 342 323 311 308 10 11 27 22 26 10
222 226 227 226 227 232 232 234 236 237 244 248 255 263 267 273 277 270 257 259 273 275 298 296 278 289 313 311 316 333 338 336 337 338 338 348 326 334 324 337 12 33 13
226 228 229 228 227 230 230 231 232 235 238 245 252 261 265 268 265 259 241 247 262 259 275 291 284 310 305 297 299 329 342 343 350 15 21 23 8 1 353 324 302 337 345
227 228 230 230 228 229 227 225 224 228 233 244 247 254 263 262 254 249 240 248 245 274 254 264 276 291 294 279 327 338 340 2 11 15 13 10 10 9 7 13 336 309 317
226 227 228 227 226 226 227 229 229 230 232 239 244 248 254 253 246 233 236 213 242 247 241 253 275 268 275 274 279 353 22 15 13 12 9 7 10 17 25 13 12 9 355
228 230 228 226 222 226 228 228 228 235 235 236 243 246 245 242 230 233 222 239 264 258 259 267 220 235 248 183 162 82 67 33 29 19 10 9 11 11 18 24 27 21 26
223 223 222 219 221 223 227 232 237 244 243 242 247 245 236 237 223 225 226 245 246 241 236 223 210 191 187 189 189 109 80 45 31 20 14 13 12 11 8 18 21 24 17
221 220 217 215 218 217 222 223 227 234 240 240 238 237 241 247 238 232 228 236 231 213 221 213 200 182 175 178 185 147 115 58 41 18 17 13 14 13 6 7 8 14 15
227 223 218 215 217 218 220 220 221 220 222 225 233 237 237 229 219 217 218 213 212 203 209 203 195 184 178 189 188 187 187 158 69 61 37 26 14 2 359 359 1 1 359
226 223 220 219 222 223 222 219 222 223 225 230 235 232 228 219 210 207 207 218 211 209 210 205 198 189 180 188 190 197 191 150 141 111 45 32 15 357 355 359 355 357 357
228 227 221 219 218 218 217 214 215 217 221 225 229 226 215 203 201 204 210 218 210 204 199 196 191 190 188 189 199 202 195 181 199 258 257 2 7 3 353 354 0 359 4
226 221 218 220 216 213 211 211 213 213 217 219 222 225 220 212 214 216 214 210 208 203 197 203 206 201 197 192 196 201 199 185 185 211 280 15 351 356 0 359 1 2 16
230 223 213 215 217 212 209 211 211 214 217 220 225 225 221 217 222 217 215 213 210 214 213 210 200 193 198 198 192 196 218 213 201 214 239 355 340 341 354 2 355 351 9
229 224 221 214 212 215 208 209 210 213 215 221 226 222 212 209 215 212 212 208 208 214 212 202 192 190 199 194 194 201 198 208 217 223 251 287 312 317 329 344 357 357 353
230 223 222 221 208 208 210 207 209 212 213 217 220 218 209 209 209 209 212 210 213 211 207 200 190 197 200 199 204 203 200 203 228 243 245 279 283 275 298 288 297 11 26
231 219 218 220 216 209 210 210 208 207 206 209 211 214 216 217 214 214 213 214 212 204 204 203 194 196 203 202 203 206 202 217 233 247 248 268 259 264 254 252 200 138 102
228 222 219 217 218 213 208 209 210 206 204 204 204 212 218 218 217 215 211 209 207 204 206 204 202 199 204 205 203 204 211 224 228 240 248 251 213 227 243 195 166 140 125